Observations
| Time | Sensor | AQI | SAQ | Temp °C | Hum % | Pres Pa | CO μg/m³ | H₂S μg/m³ | NO μg/m³ | NO₂ μg/m³ | O₃ μg/m³ | SO₂ μg/m³ | CO₂e PPM | VOC PPM | PM1 μg/m³ | PM2.5 μg/m³ | PM4 μg/m³ | PM10 μg/m³ | TPS µm |
|---|---|---|---|---|---|---|---|---|---|---|---|---|---|---|---|---|---|---|---|
| Wednesday 12 August 2026 | |||||||||||||||||||
| 07:04 | Trim Market St | 2 | 21.2 | 66 | 57,012 | 0.17 | 0 | 1.16 | 11.65 | 57.85 | 0 | 4.99 | 7.2 | 10.14 | |||||
| 07:04 | Trim Patrick St | 2 | 20.6 | 68 | 38,460 | 0.06 | 0 | 1.34 | 8.47 | 48.06 | 0 | 7.14 | 12.52 | 13.78 | |||||
| 07:03 | Trim Market St | 2 | 21.1 | 66 | 56,988 | 0.17 | 0 | 1.18 | 11.86 | 61.98 | 0 | 5.7 | 6.7 | 9.48 | |||||
| 07:03 | Trim Patrick St | 2 | 20.5 | 68 | 38,460 | 0.06 | 0 | 1.16 | 19.06 | 52.28 | 0 | 7.14 | 11.77 | 12.95 | |||||
| 07:02 | Trim Market St | 2 | 21.1 | 66 | 56,963 | 0.17 | 0 | 1.19 | 10.65 | 53.59 | 0 | 2.85 | 4.23 | 6.88 | |||||
| 07:02 | Trim Patrick St | 2 | 20.5 | 68 | 38,460 | 0.06 | 0 | 1.16 | 5.91 | 50.55 | 0 | 5.43 | 11.04 | 12.14 | |||||
| 07:01 | Trim Patrick St | 2 | 20.5 | 66 | 38,460 | 0.06 | 0 | 1.21 | 15.92 | 54.06 | 0 | 7.14 | 11.93 | 13.12 | |||||
| 07:00 | Trim Market St | 2 | 20.9 | 66 | 56,901 | 0.17 | 0 | 1.46 | 10 | 72.48 | 0 | 3.56 | 5.7 | 8.18 | |||||
| 07:00 | Trim Patrick St | 2 | 20.4 | 69 | 38,460 | 0.07 | 0 | 1.16 | 8.3 | 52.62 | 0 | 7.14 | 13.21 | 14.53 | |||||
| 06:59 | Trim Patrick St | 2 | 20.4 | 69 | 38,460 | 0.06 | 0 | 1.3 | 16.15 | 44.37 | 0 | 7.14 | 12.45 | 13.69 | |||||
| 06:58 | Trim Patrick St | 2 | 20.3 | 69 | 38,460 | 0.07 | 0 | 1.51 | 6.59 | 51.36 | 0 | 7.14 | 11.72 | 12.89 | |||||
| 06:57 | Trim Patrick St | 2 | 20.3 | 69 | 38,460 | 0.06 | 0 | 1.58 | 12.12 | 48.44 | 0 | 9.71 | 13.89 | 15.28 | |||||
| 06:56 | Trim Patrick St | 2 | 20.2 | 69 | 38,460 | 0.07 | 0 | 1.51 | 8.06 | 51.98 | 0 | 8 | 12.43 | 13.67 | |||||
| 06:54 | Trim Market St | 2 | 20.6 | 67 | 56,787 | 0.14 | 0 | 1.16 | 10.67 | 66.65 | 0 | 4.28 | 5.66 | 8.18 | |||||
| 06:54 | Trim Patrick St | 2 | 20.2 | 69 | 38,460 | 0.06 | 0 | 1.37 | 6.19 | 50 | 0 | 8 | 13.17 | 14.49 | |||||
| 06:53 | Trim Patrick St | 2 | 20.1 | 69 | 38,460 | 0.07 | 0 | 1.23 | 9.96 | 46.59 | 0 | 8 | 13.16 | 14.48 | |||||
| 06:52 | Trim Market St | 2 | 20.5 | 67 | 56,750 | 0.11 | 0 | 1.18 | 9.84 | 73.45 | 0 | 4.28 | 5.65 | 8.17 | |||||
| 06:52 | Trim Patrick St | 2 | 20.1 | 69 | 38,460 | 0.06 | 0 | 1.14 | 8.12 | 48.58 | 0 | 9.71 | 13.87 | 15.25 | |||||
| 06:51 | Trim Patrick St | 2 | 20 | 69 | 38,460 | 0.06 | 0 | 1.18 | 11.23 | 59.82 | 0 | 7.14 | 12.46 | 13.7 | |||||
| 06:50 | Trim Market St | 2 | 20.4 | 67 | 56,739 | 0.13 | 0 | 1.19 | 12.94 | 66.31 | 0 | 4.28 | 5.64 | 8.17 | |||||